STARLINK-36109

Last updated on Fri Dec 19 2025 00:02:08 GMT+0000 (Coordinated Universal Time)

1 66943U 25286U 25352.58336806 -.01365966 00000+0 -72947-2 0 9995 2 66943 53.1553 20.9961 0000848 70.1076 72.6485 15.82624328 2869
UTC large
Height (km)
Speed (km/s)
/
Latitude / Longitude
Inclination (degrees)
Orbital Period (minutes)
Azimuth
Elevation
Range (km)
Doppler Factor

Next 0 passes for location: London (51.5072 / 0.1276)

Sorry there are no passes over London.